Regional Weather Roundup
Issued by NWS

Home | Current Version | Previous Version | Text Only | Print | Product List | Glossary Off
Versions: 1 2 3 4 5 6 7 8 9 10 11 12 13 14 15 16 17 18 19 20 21 22 23 24 25 26 27 28 29 30 31 32 33 34 35 36 37 38 39 40 41 42 43 44 45 46 47 48 49 50

000
ASUS43 KBIS 191020
RWRND

NORTH DAKOTA REGIONAL WEATHER ROUNDUP
NATIONAL WEATHER SERVICE BISMARCK ND
500 AM CDT SUN APR 19 2015

NOTE: "FAIR" INDICATES FEW OR NO CLOUDS BELOW 12,000 FEET WITH NO
SIGNIFICANT WEATHER AND/OR OBSTRUCTIONS TO VISIBILITY.


NDZ001>003-009>011-017-191100-
NORTHWEST NORTH DAKOTA

CITY           SKY/WX    TMP DP  RH WIND       PRES   REMARKS
WILLISTON      CLOUDY    40  29  64 NW17      29.98F
MINOT          CLOUDY    41  31  67 W17       29.88F
MINOT AFB      CLOUDY    39  36  88 NW15      29.87F
$$

NDZ018>021-031>035-040>046-191100-
SOUTHWEST NORTH DAKOTA

CITY           SKY/WX    TMP DP  RH WIND       PRES   REMARKS
BISMARCK       CLOUDY    43  34  70 NW15G23   29.91R
DICKINSON      CLEAR     34  26  72 W17       29.96F
GARRISON         N/A     40  33  76 NW16      29.90S
HETTINGER ARPT CLEAR     34  28  79 NW13      29.99S
$$

NDZ004>008-012>016-024-026-027-054-191100-
NORTHEAST NORTH DAKOTA

CITY           SKY/WX    TMP DP  RH WIND       PRES   REMARKS
GRAND FORKS    LGT RAIN  48  46  93 CALM      29.74F
GRND FRKS AFB  LGT RAIN  48  45  87 NW7       29.74F
DEVILS LAKE    CLOUDY    45  37  76 N18       29.79F
$$

NDZ022-023-025-028>030-036>039-047>053-191100-
SOUTHEAST NORTH DAKOTA

CITY           SKY/WX    TMP DP  RH WIND       PRES   REMARKS
FARGO          RAIN      51  49  92 NE3       29.73S FOG
JAMESTOWN      LGT RAIN  46  42  86 NW22G31   29.78S
$$



USA.gov is the U.S. government's official web portal to all federal, state and local government web resources and services.